This is the latest recevied weather packets stored in our database for station/object EA3DJ-10. If no packets are shown the sender has not sent any weather packets the latest 10 day(s).
| Time | Temp. | Humidity | Pressure | Rain* | Wind** | Luminosity | Snow |
|---|---|---|---|---|---|---|---|
| 1787855928 | 28.89° C | 52% | 1012.5 hPa | - | - | - | - |
| 1787854728 | 28.89° C | 52% | 1011.9 hPa | - | - | - | - |
| 1787853528 | 28.89° C | 51% | 1012.4 hPa | - | - | - | - |
| 1787852328 | 28.89° C | 51% | 1012.2 hPa | - | - | - | - |
| 1787851128 | 28.89° C | 51% | 1012.3 hPa | - | - | - | - |
| 1787849928 | 28.89° C | 49% | 1012 hPa | - | - | - | - |
| 1787848728 | 28.33° C | 49% | 1012.2 hPa | - | - | - | - |
| 1787847528 | 28.33° C | 49% | 1012.2 hPa | - | - | - | - |
| 1787846327 | 27.78° C | 51% | 1012.1 hPa | - | - | - | - |
| 1787845127 | 28.89° C | 48% | 1012.3 hPa | - | - | - | - |
| 1787843927 | 28.89° C | 48% | 1012.2 hPa | - | - | - | - |
| 1787842727 | 28.89° C | 47% | 1012.2 hPa | - | - | - | - |
| 1787841527 | 28.33° C | 45% | 1012.5 hPa | - | - | - | - |
| 1787840327 | 27.78° C | 43% | 1012.4 hPa | - | - | - | - |
| 1787839127 | 26.67° C | 47% | 1012.4 hPa | - | - | - | - |
| 1787837927 | 27.78° C | 52% | 1012.4 hPa | - | - | - | - |
| 1787836727 | 29.44° C | 52% | 1012.1 hPa | - | - | - | - |
| 1787835526 | 29.44° C | 52% | 1012.1 hPa | - | - | - | - |
| 1787834326 | 29.44° C | 51% | 1012.2 hPa | - | - | - | - |
| 1787833126 | 29.44° C | 51% | 1012.2 hPa | - | - | - | - |
| 1787831926 | 29.44° C | 51% | 1012.5 hPa | - | - | - | - |
| 1787830726 | 29.44° C | 51% | 1012.5 hPa | - | - | - | - |
| 1787829526 | 29.44° C | 50% | 1012.6 hPa | - | - | - | - |
| 1787828326 | 29.44° C | 50% | 1012.6 hPa | - | - | - | - |
| 1787827126 | 29.44° C | 50% | 1012.7 hPa | - | - | - | - |
* Rain since midnight (hover to see other rain measurements)
** Current wind speed in m/s (hover to see current wind gust speed)